• In Netherlands
  • List of Countries
  • For 7 days
  • Water Temperature
  • Satellite Maps
  • Weather Map
  • Weather Widgets
  • user-avatar
    Login

    Hourly Weather Mingachevir

    Today, 28 July, Friday

    Time Temperature Precipitation Wind Pressure Humidity
    00:00 +30°C° 0 mm 3 mps 749 mmHg 41%
    01:00 +29°C° 0 mm 2 mps 749 mmHg 42%
    02:00 +29°C° 0 mm 2 mps 749 mmHg 43%
    03:00 +29°C° 0 mm 2 mps 749 mmHg 44%
    04:00 +29°C° 0 mm 1 mps 749 mmHg 43%
    05:00 +29°C° 0 mm 1 mps 749 mmHg 43%
    06:00 +30°C° 0 mm 1 mps 749 mmHg 43%
    07:00 +32°C° 0 mm 1 mps 749 mmHg 38%
    08:00 +33°C° 0 mm 1 mps 749 mmHg 34%
    09:00 +35°C° 0 mm 1 mps 749 mmHg 28%
    10:00 +37°C° 0 mm 1 mps 748 mmHg 27%
    11:00 +39°C° 0 mm 2 mps 748 mmHg 25%
    12:00 +40°C° 0 mm 2 mps 748 mmHg 23%
    13:00 +41°C° 0 mm 2 mps 747 mmHg 22%
    14:00 +42°C° 0 mm 2 mps 747 mmHg 21%
    15:00 +43°C° 0 mm 3 mps 746 mmHg 20%
    16:00 +43°C° 0 mm 3 mps 747 mmHg 21%
    17:00 +42°C° 0 mm 3 mps 747 mmHg 22%
    18:00 +42°C° 0 mm 3 mps 747 mmHg 22%
    19:00 +39°C° 0 mm 3 mps 747 mmHg 26%
    20:00 +36°C° 0 mm 3 mps 747 mmHg 30%
    21:00 +34°C° 0 mm 3 mps 748 mmHg 33%
    22:00 +33°C° 0 mm 3 mps 748 mmHg 36%
    23:00 +31°C° 0 mm 2 mps 748 mmHg 39%

    Tomorrow, 29 July, Saturday

    Time Temperature Precipitation Wind Pressure Humidity
    00:00 +30°C° 0 mm 2 mps 748 mmHg 41%
    01:00 +30°C° 0 mm 2 mps 748 mmHg 43%
    02:00 +29°C° 0 mm 1 mps 748 mmHg 45%
    03:00 +28°C° 0 mm 1 mps 748 mmHg 47%
    04:00 +29°C° 0 mm 1 mps 748 mmHg 46%
    05:00 +29°C° 0 mm 2 mps 748 mmHg 44%
    06:00 +30°C° 0 mm 2 mps 748 mmHg 43%
    07:00 +32°C° 0 mm 2 mps 748 mmHg 37%
    08:00 +35°C° 0 mm 3 mps 747 mmHg 32%
    09:00 +38°C° 0 mm 3 mps 747 mmHg 26%
    10:00 +39°C° 0 mm 3 mps 747 mmHg 24%
    11:00 +40°C° 0 mm 3 mps 746 mmHg 22%
    12:00 +43°C° 0 mm 3 mps 746 mmHg 20%
    13:00 +42°C° 0 mm 2 mps 746 mmHg 19%
    14:00 +43°C° 0 mm 2 mps 746 mmHg 18%
    15:00 +45°C° 0 mm 2 mps 745 mmHg 18%
    16:00 +43°C° 0 mm 1 mps 745 mmHg 19%
    17:00 +43°C° 0 mm 1 mps 745 mmHg 20%
    18:00 +43°C° 0 mm 1 mps 746 mmHg 21%
    19:00 +40°C° 0 mm 2 mps 746 mmHg 24%
    20:00 +38°C° 0 mm 2 mps 747 mmHg 27%
    21:00 +36°C° 0 mm 3 mps 748 mmHg 30%
    22:00 +35°C° 0 mm 3 mps 748 mmHg 34%
    23:00 +34°C° 0 mm 2 mps 749 mmHg 37%

    Day after tomorrow, 30 July, Sunday

    Time Temperature Precipitation Wind Pressure Humidity
    00:00 +32°C° 0 mm 2 mps 749 mmHg 41%
    01:00 +31°C° 0 mm 3 mps 749 mmHg 43%
    02:00 +31°C° 0 mm 3 mps 750 mmHg 45%
    03:00 +30°C° 0 mm 4 mps 750 mmHg 47%
    04:00 +30°C° 0 mm 4 mps 750 mmHg 47%
    05:00 +31°C° 0 mm 3 mps 750 mmHg 47%
    06:00 +31°C° 0 mm 3 mps 751 mmHg 47%
    07:00 +33°C° 0 mm 3 mps 751 mmHg 42%
    08:00 +35°C° 0 mm 3 mps 751 mmHg 36%
    09:00 +37°C° 0 mm 3 mps 751 mmHg 31%
    10:00 +38°C° 0 mm 3 mps 750 mmHg 29%
    11:00 +39°C° 0 mm 2 mps 750 mmHg 27%
    12:00 +40°C° 0 mm 2 mps 750 mmHg 25%
    13:00 +41°C° 0 mm 2 mps 750 mmHg 24%
    14:00 +43°C° 0 mm 3 mps 749 mmHg 23%
    15:00 +43°C° 0 mm 4 mps 749 mmHg 22%
    16:00 +43°C° 0 mm 4 mps 749 mmHg 23%
    17:00 +42°C° 0 mm 5 mps 749 mmHg 25%
    18:00 +41°C° 0 mm 5 mps 749 mmHg 26%
    19:00 +39°C° 0 mm 5 mps 750 mmHg 32%
    20:00 +36°C° 0 mm 5 mps 750 mmHg 37%
    21:00 +34°C° 0 mm 5 mps 751 mmHg 42%
    22:00 +33°C° 0 mm 4 mps 751 mmHg 46%
    23:00 +31°C° 0 mm 3 mps 751 mmHg 49%

    31 July, Monday

    Time Temperature Precipitation Wind Pressure Humidity
    00:00 +30°C° 0 mm 2 mps 752 mmHg 52%
    01:00 +30°C° 0 mm 2 mps 752 mmHg 54%
    02:00 +29°C° 0 mm 2 mps 752 mmHg 56%
    03:00 +28°C° 0 mm 1 mps 752 mmHg 57%
    04:00 +29°C° 0 mm 1 mps 752 mmHg 56%
    05:00 +29°C° 0 mm 1 mps 752 mmHg 54%
    06:00 +29°C° 0 mm 1 mps 753 mmHg 52%
    07:00 +31°C° 0 mm 1 mps 753 mmHg 47%
    08:00 +34°C° 0 mm 2 mps 753 mmHg 43%
    09:00 +35°C° 0 mm 2 mps 753 mmHg 38%
    10:00 +37°C° 0 mm 3 mps 752 mmHg 35%
    11:00 +38°C° 0 mm 3 mps 752 mmHg 32%
    12:00 +40°C° 0 mm 4 mps 751 mmHg 29%
    13:00 +41°C° 0 mm 4 mps 751 mmHg 27%
    14:00 +41°C° 0 mm 4 mps 751 mmHg 26%
    15:00 +42°C° 0 mm 5 mps 750 mmHg 25%
    16:00 +41°C° 0 mm 5 mps 750 mmHg 26%
    17:00 +41°C° 0 mm 5 mps 751 mmHg 27%
    18:00 +40°C° 0 mm 5 mps 751 mmHg 28%
    19:00 +37°C° 0 mm 5 mps 751 mmHg 33%
    20:00 +35°C° 0 mm 5 mps 752 mmHg 37%
    21:00 +33°C° 0 mm 5 mps 753 mmHg 42%
    22:00 +32°C° 0 mm 4 mps 753 mmHg 45%
    23:00 +30°C° 0 mm 3 mps 753 mmHg 49%

    1 August, Tuesday

    Time Temperature Precipitation Wind Pressure Humidity
    00:00 +30°C° 0 mm 3 mps 753 mmHg 52%
    01:00 +29°C° 0 mm 2 mps 753 mmHg 53%
    02:00 +29°C° 0 mm 2 mps 753 mmHg 54%
    03:00 +29°C° 0 mm 1 mps 753 mmHg 55%
    04:00 +29°C° 0 mm 1 mps 754 mmHg 54%
    05:00 +29°C° 0 mm 1 mps 754 mmHg 54%
    06:00 +29°C° 0 mm 1 mps 754 mmHg 53%
    07:00 +31°C° 0 mm 1 mps 754 mmHg 47%
    08:00 +32°C° 0 mm 2 mps 754 mmHg 42%
    09:00 +35°C° 0 mm 3 mps 754 mmHg 36%
    10:00 +36°C° 0 mm 3 mps 754 mmHg 33%
    11:00 +37°C° 0 mm 3 mps 753 mmHg 30%
    12:00 +39°C° 0 mm 3 mps 753 mmHg 27%
    13:00 +40°C° 0 mm 4 mps 753 mmHg 26%
    14:00 +41°C° 0 mm 4 mps 752 mmHg 25%
    15:00 +42°C° 0 mm 4 mps 752 mmHg 24%
    16:00 +41°C° 0 mm 4 mps 752 mmHg 24%
    17:00 +41°C° 0 mm 4 mps 752 mmHg 25%
    18:00 +40°C° 0 mm 5 mps 752 mmHg 26%
    19:00 +37°C° 0 mm 5 mps 753 mmHg 31%
    20:00 +35°C° 0 mm 5 mps 754 mmHg 36%
    21:00 +33°C° 0 mm 5 mps 754 mmHg 41%
    22:00 +32°C° 0 mm 5 mps 754 mmHg 44%
    23:00 +30°C° 0 mm 4 mps 755 mmHg 48%

    2 August, Wednesday

    Time Temperature Precipitation Wind Pressure Humidity
    00:00 +29°C° 0 mm 3 mps 755 mmHg 51%
    01:00 +28°C° 0 mm 3 mps 755 mmHg 53%
    02:00 +28°C° 0 mm 2 mps 755 mmHg 54%
    03:00 +27°C° 0 mm 2 mps 755 mmHg 56%
    04:00 +28°C° 0 mm 2 mps 755 mmHg 55%
    05:00 +28°C° 0 mm 2 mps 755 mmHg 54%
    06:00 +28°C° 0 mm 2 mps 755 mmHg 53%
    07:00 +30°C° 0 mm 2 mps 755 mmHg 48%
    08:00 +33°C° 0 mm 3 mps 755 mmHg 43%
    09:00 +35°C° 0 mm 4 mps 755 mmHg 37%
    10:00 +36°C° 0 mm 4 mps 754 mmHg 35%
    11:00 +37°C° 0 mm 4 mps 754 mmHg 33%
    12:00 +39°C° 0 mm 5 mps 754 mmHg 30%
    13:00 +40°C° 0 mm 5 mps 753 mmHg 29%
    14:00 +41°C° 0 mm 5 mps 753 mmHg 28%
    15:00 +41°C° 0 mm 5 mps 752 mmHg 27%
    16:00 +40°C° 0 mm 5 mps 752 mmHg 29%
    17:00 +40°C° 0 mm 5 mps 752 mmHg 30%
    18:00 +39°C° 0 mm 6 mps 753 mmHg 31%
    19:00 +36°C° 0 mm 5 mps 753 mmHg 35%
    20:00 +34°C° 0 mm 5 mps 754 mmHg 39%
    21:00 +32°C° 0 mm 5 mps 754 mmHg 43%
    22:00 +30°C° 0 mm 4 mps 754 mmHg 46%
    23:00 +29°C° 0 mm 4 mps 754 mmHg 49%
    Show more